Theta_e
321 320 322 321 324 323 326 327 328 329 330 330 330 330 330 329 325 323 325 328 328 335 338 335 342 346 347 347 348 348 348 349 351 349 349 350 350 348 349 348 349 348 349 351 353 354 353 353 356 358 358 357 357 358 358 358 358 358 357 359 358 359 359 357 356 356 355 356 358 359 359 359 359 359
321 320 320 321 320 323 324 324 327 328 329 328 329 330 331 332 328 327 325 329 333 332 336 337 338 343 345 346 346 346 346 345 348 350 348 349 349 345 344 344 345 346 346 346 348 350 349 351 353 356 357 358 358 358 358 359 358 357 357 359 358 359 359 357 356 355 355 355 357 358 358 359 359 359
320 320 319 320 320 322 322 322 323 326 326 327 328 329 331 330 331 331 329 325 333 335 333 336 340 341 344 341 344 344 344 344 345 348 348 348 346 346 347 345 345 345 345 346 347 347 349 351 352 353 353 354 356 355 355 357 358 358 358 358 357 359 359 356 355 354 354 353 355 357 359 358 357 356
319 319 318 319 320 321 323 323 323 322 325 327 326 329 330 330 331 332 330 328 328 334 335 336 337 339 342 340 339 342 342 343 343 344 345 347 346 347 349 345 343 344 345 345 345 346 348 349 353 354 354 353 353 355 354 354 355 355 354 355 357 358 357 355 354 354 354 353 354 357 358 358 356 355
318 318 318 318 320 321 321 322 322 323 323 324 325 327 328 327 330 330 329 327 328 332 337 337 336 340 341 338 339 338 338 340 342 343 344 346 346 346 347 347 342 341 343 344 345 344 345 347 350 352 352 350 352 353 355 355 354 353 353 350 356 355 353 352 353 353 354 354 355 355 356 357 357 355
317 318 319 317 318 321 321 321 321 322 322 323 322 323 325 325 327 331 328 327 328 328 334 334 337 337 339 336 341 339 336 338 341 341 342 344 344 344 345 344 344 340 341 342 344 345 344 344 346 347 350 351 353 353 353 354 354 353 350 347 348 351 348 349 350 350 351 353 354 354 354 356 356 355
317 317 317 317 319 319 319 319 322 324 324 324 323 325 325 324 326 328 330 328 326 328 329 331 331 334 335 334 336 338 338 338 339 339 339 342 342 343 343 343 343 340 341 341 343 343 344 343 344 346 348 349 349 349 351 350 348 345 343 342 341 343 347 347 346 346 349 351 352 353 353 354 355 354
316 317 317 316 317 319 319 319 320 322 324 325 325 325 325 325 326 328 329 330 328 328 325 329 329 331 331 333 336 338 340 337 335 338 340 341 341 342 341 340 340 340 341 341 342 343 343 343 343 343 343 345 347 350 347 342 340 339 339 338 338 339 343 344 343 342 344 346 349 350 351 351 352 351
316 316 316 316 318 318 317 317 319 321 323 325 326 325 324 325 327 328 328 329 329 328 326 326 329 330 331 332 334 335 334 335 336 337 338 337 339 340 341 339 340 340 341 341 342 341 342 344 343 341 341 340 340 341 341 340 339 338 338 337 336 337 338 339 338 338 339 340 342 344 345 345 346 347
316 315 316 316 317 316 316 317 319 320 322 323 325 325 325 325 326 327 328 328 327 326 326 326 325 329 327 329 331 333 333 332 331 333 335 336 337 338 338 340 338 339 340 341 342 341 341 339 337 340 341 339 338 338 338 339 339 340 340 337 335 336 336 337 336 335 335 336 338 339 340 341 343 345
316 316 315 316 317 316 317 317 319 320 321 321 323 325 324 326 325 323 324 325 325 325 324 324 325 325 327 328 325 329 333 333 332 330 329 331 334 336 336 336 338 338 339 342 341 343 343 342 342 329 332 333 335 335 336 337 339 340 340 336 334 334 335 336 336 335 334 334 335 335 334 336 339 342
316 316 316 315 317 318 318 317 318 318 318 321 322 323 325 324 324 323 323 323 323 322 322 321 322 323 324 326 327 328 329 329 328 330 328 327 328 330 336 337 335 336 338 340 341 343 344 344 343 334 333 335 337 337 335 337 340 343 343 339 336 335 335 335 335 334 334 334 334 333 332 331 332 337
315 316 316 315 316 318 316 317 316 316 317 319 320 322 324 324 322 323 323 322 321 320 319 320 321 321 322 324 324 323 322 323 323 328 330 328 328 330 331 336 338 336 336 338 338 339 342 343 343 345 345 346 341 342 340 342 341 344 343 340 336 335 335 334 334 333 333 333 332 332 332 331 330 331
315 315 315 317 314 315 316 317 316 316 316 317 319 320 323 323 323 322 322 321 321 321 320 317 318 318 318 318 321 321 322 325 327 326 327 325 326 329 329 334 336 335 336 335 336 338 342 342 342 344 342 344 346 346 345 347 344 341 338 337 335 334 334 334 334 333 332 331 331 331 331 331 330 329
314 314 315 316 316 316 317 317 316 316 316 316 316 318 320 322 323 322 321 321 321 320 319 319 319 318 318 318 320 320 321 324 324 324 326 325 325 324 324 323 330 335 334 334 335 336 341 342 340 341 341 342 343 342 341 333 339 339 337 336 335 334 333 333 333 333 332 332 331 331 331 330 330 329
314 313 314 315 316 317 316 317 317 317 317 316 316 316 318 319 321 323 323 322 320 321 320 320 320 320 320 321 322 321 321 321 322 323 324 325 323 323 322 323 323 331 335 332 333 333 337 340 341 340 343 344 342 337 331 330 334 336 336 336 335 334 333 333 333 332 332 332 331 331 330 330 330 329
313 315 314 314 313 313 316 315 316 317 317 317 316 317 317 318 318 320 322 323 324 324 321 321 320 320 320 321 321 322 322 324 322 322 321 323 323 323 323 323 325 330 334 332 332 330 334 338 337 338 340 343 342 340 331 330 332 334 334 334 334 333 333 332 332 332 332 331 330 329 329 328 329 328
314 314 314 315 314 314 314 314 314 315 316 316 317 318 317 317 317 318 320 321 322 324 324 322 319 321 323 321 323 324 324 322 321 320 321 323 323 323 323 325 327 331 332 331 331 330 330 335 336 338 341 340 342 339 327 326 328 329 330 332 331 332 331 331 331 331 331 331 330 328 327 327 327 327
315 315 314 316 315 315 314 314 317 316 316 315 314 315 316 315 317 318 318 317 318 321 322 321 321 320 321 323 323 323 322 323 322 323 323 324 323 325 328 330 329 329 331 331 331 325 328 335 334 334 340 342 340 342 328 326 328 328 327 327 327 328 329 329 329 330 330 330 330 328 327 325 325 325
316 316 316 317 317 315 315 316 318 318 318 314 314 313 314 315 316 316 318 316 317 319 319 319 319 320 322 322 323 324 323 321 323 325 326 326 325 324 322 321 323 324 328 331 330 327 328 332 331 333 341 341 341 343 343 330 329 328 327 325 324 324 325 327 327 328 328 329 329 329 327 326 324 323
316 316 317 318 316 316 315 316 317 317 317 314 312 313 313 313 314 314 316 317 315 315 318 318 318 318 319 320 321 322 321 324 326 324 322 320 323 320 319 319 320 321 326 328 332 329 326 329 332 332 337 340 341 341 341 343 329 327 327 325 324 322 322 324 325 326 326 327 328 328 327 325 324 323
316 319 317 315 315 314 315 315 317 315 316 312 311 312 312 312 312 313 314 315 315 315 319 318 318 318 318 320 321 321 321 323 323 323 319 320 322 320 320 318 320 322 323 326 331 328 325 329 332 332 334 335 337 338 340 341 338 327 325 322 323 322 321 321 321 323 324 325 325 326 326 325 324 332
315 315 317 315 315 315 316 315 315 314 314 313 312 313 313 310 311 311 313 314 314 317 316 317 317 317 317 319 320 321 317 319 322 324 323 323 322 321 320 321 320 319 320 327 332 326 324 327 329 331 328 328 332 338 338 339 340 341 342 341 341 323 323 322 321 320 321 322 323 323 322 322 322 341
316 315 316 316 316 315 315 314 312 314 315 313 313 312 310 308 307 313 314 315 314 316 316 317 318 318 318 318 319 320 320 320 322 323 323 324 324 322 322 322 320 319 320 326 329 327 325 328 326 330 330 327 325 333 335 336 339 340 340 340 340 335 333 330 324 318 318 318 319 320 319 319 322 342
314 315 314 315 313 315 314 314 312 311 314 312 312 311 310 311 313 315 315 315 314 316 317 317 316 317 316 318 318 316 319 318 320 321 323 323 325 324 322 321 322 321 322 325 327 329 326 326 326 329 328 328 329 330 331 334 336 337 339 339 337 339 341 342 338 338 320 318 315 314 315 317 318 332
315 316 315 316 316 314 313 314 311 311 312 313 311 312 312 313 315 316 315 315 316 315 315 314 314 314 313 313 314 314 316 316 318 319 322 324 326 325 325 323 322 320 320 327 328 328 326 324 325 326 327 325 327 332 328 328 332 334 337 338 338 338 339 338 340 342 341 337 334 324 321 316 317 319
316 318 317 316 313 313 308 309 311 312 313 310 311 310 311 313 315 314 313 315 315 314 315 315 314 314 313 313 313 314 314 316 319 318 321 324 325 324 325 325 326 324 325 328 329 329 327 325 329 325 324 327 325 326 329 327 328 332 333 333 337 338 338 338 337 338 340 340 334 319 318 316 317 318
317 318 317 318 310 308 304 307 310 313 312 311 310 311 312 316 312 313 312 312 314 314 313 312 313 313 313 314 313 313 316 316 319 319 320 322 323 323 323 324 325 326 327 327 328 329 329 327 327 330 329 326 324 323 325 330 330 330 328 331 334 335 337 337 337 337 338 338 336 335 334 333 333 333
319 317 310 308 308 311 309 309 311 314 315 312 313 313 315 312 312 312 311 312 313 312 311 310 312 312 313 314 314 317 318 319 319 319 319 321 321 322 324 324 324 325 325 326 327 328 328 327 327 329 329 327 325 325 327 326 329 329 329 329 327 330 333 336 336 335 336 336 334 333 332 332 331 334
313 312 314 312 311 312 315 315 314 314 313 311 312 315 311 313 312 311 311 312 311 310 310 310 310 310 312 313 316 318 318 317 315 317 317 318 318 319 320 319 320 322 322 323 325 326 328 328 328 329 328 328 327 326 327 325 327 329 330 327 327 330 330 332 333 334 334 333 333 331 332 333 332 332
319 319 318 318 315 314 312 313 312 312 312 313 312 312 312 312 312 312 312 312 311 311 311 310 311 312 313 316 317 315 314 315 315 318 316 314 314 316 317 317 316 317 319 322 323 324 326 327 328 328 325 325 325 327 327 327 324 325 326 327 327 322 325 330 332 332 333 332 333 332 332 333 333 333
320 319 316 317 317 317 316 314 314 312 313 312 312 311 311 311 312 311 310 311 313 313 312 311 313 313 314 312 313 314 314 313 314 316 316 314 313 314 315 314 314 315 316 318 319 323 324 327 327 327 327 326 324 326 327 326 324 324 325 326 326 325 327 326 327 329 333 333 331 330 330 330 330 331
319 319 316 316 315 314 312 311 311 310 310 311 311 311 310 312 311 311 310 311 311 311 311 311 311 311 311 311 312 312 313 314 314 314 316 316 315 316 315 312 312 312 311 313 315 318 322 323 328 327 326 326 327 326 324 322 324 325 324 324 324 324 325 325 326 328 333 331 329 329 328 329 330 331
316 316 314 313 312 312 311 310 309 309 309 310 309 310 309 311 310 310 311 310 311 312 311 310 309 310 310 310 309 310 310 312 313 314 312 314 315 314 312 311 313 313 313 313 313 315 318 321 322 326 327 326 324 323 323 323 322 323 323 324 323 322 324 326 325 328 329 328 327 325 326 326 327 328
316 315 313 312 312 312 312 310 309 309 309 309 309 308 309 310 310 309 309 309 310 310 310 310 310 309 310 310 310 309 309 311 311 312 314 313 313 312 311 310 311 311 312 312 313 315 315 317 317 318 320 321 322 321 315 321 322 322 324 324 324 322 322 325 325 328 329 330 326 325 324 325 326 328
316 315 314 312 312 311 311 311 311 310 309 309 309 309 309 308 310 310 309 309 311 310 308 308 310 309 309 309 310 309 310 310 311 311 311 311 311 310 311 310 310 310 311 312 312 314 313 315 314 313 313 315 316 316 316 314 316 321 321 321 322 324 323 324 326 326 324 324 327 324 321 322 324 327
316 316 314 313 313 312 311 311 310 310 310 310 309 309 309 308 309 311 313 312 311 310 309 310 309 309 309 309 309 309 310 310 310 310 310 310 311 311 310 310 310 310 310 311 312 313 315 314 314 313 313 311 313 312 314 322 315 315 321 321 323 323 324 323 322 322 323 324 325 322 322 323 322 324
316 316 315 313 313 313 313 312 311 311 311 310 310 309 309 310 311 312 314 312 309 309 309 309 309 309 308 309 309 309 309 310 310 310 309 309 309 310 309 308 310 309 310 312 312 312 312 313 312 314 313 310 310 311 312 316 319 317 311 319 322 322 323 322 319 317 319 322 322 324 324 322 321 325
317 316 315 314 314 313 313 312 311 311 311 311 310 309 309 310 310 311 311 310 310 309 309 309 308 307 309 310 309 310 308 308 309 309 309 308 308 308 308 309 310 310 311 311 312 312 311 312 312 313 312 313 313 313 314 314 313 319 315 308 319 324 322 320 317 318 318 318 320 322 325 328 324 318
317 316 316 315 315 315 314 314 313 312 311 311 310 311 310 309 310 310 309 309 309 309 309 309 309 308 310 309 308 309 309 309 309 309 309 309 307 308 308 310 309 309 310 310 309 311 311 311 313 313 313 315 316 319 320 317 317 320 320 316 308 317 322 322 320 319 316 317 320 320 321 323 322 325
317 316 316 317 317 316 315 314 314 313 312 312 313 311 313 313 311 310 309 310 310 309 308 309 310 309 310 308 310 308 308 308 309 309 309 309 308 308 307 308 309 309 309 309 309 310 311 312 313 313 315 318 321 322 317 314 313 314 315 316 310 310 310 315 325 322 319 321 320 316 316 316 318 322
317 316 316 317 316 316 316 315 314 313 313 313 313 312 313 314 313 308 310 310 310 310 309 308 308 308 308 309 309 308 308 308 307 309 309 308 308 309 308 308 308 308 308 307 308 309 313 316 317 317 320 319 317 314 311 311 311 312 314 316 317 311 311 311 311 313 325 324 318 317 315 315 315 315
318 317 316 317 317 317 316 315 315 314 314 314 313 314 313 311 310 311 310 310 311 309 308 308 308 308 308 309 309 308 308 309 308 309 309 309 308 308 307 307 307 308 308 309 310 310 313 315 317 315 315 315 315 315 309 310 312 312 314 314 315 317 318 310 310 310 309 309 312 317 320 318 315 312
318 318 317 318 318 318 318 317 316 316 316 315 314 313 312 311 311 310 310 309 309 308 308 308 308 308 308 308 308 309 309 307 307 309 308 308 309 307 308 307 308 308 308 307 308 309 309 311 312 312 311 311 312 313 311 310 309 310 311 312 315 316 316 318 320 313 312 310 308 311 311 312 314 316
320 319 318 318 318 319 320 319 318 317 316 315 315 313 313 312 310 310 310 310 309 308 308 307 307 308 308 308 307 307 309 306 308 308 309 308 308 308 308 307 307 307 306 308 308 309 309 310 310 312 312 312 312 312 312 311 310 310 310 311 311 313 312 314 314 315 315 316 310 307 310 312 314 315
Wind_Speed
9 9 9 7 6 6 6 5 6 5 6 6 6 6 7 6 7 7 8 7 5 5 7 6 6 8 8 7 7 8 8 11 10 7 8 6 5 3 5 6 8 9 11 18 20 20 20 20 23 23 24 24 25 25 26 25 25 25 24 24 24 23 22 21 19 17 17 17 18 18 19 18 17 16
8 9 8 8 7 7 7 5 6 5 5 6 6 6 6 6 7 6 7 6 4 5 5 6 6 7 7 6 7 7 7 12 11 8 6 6 6 7 9 8 7 6 7 11 12 11 16 21 20 20 22 23 23 24 26 26 26 23 23 24 25 23 22 21 19 18 17 18 18 19 18 17 16 16
8 9 9 8 7 7 7 7 6 6 6 6 6 6 6 6 6 7 6 7 3 5 5 5 6 7 7 7 7 6 7 9 9 9 7 8 10 10 9 12 10 4 6 6 11 13 14 16 17 18 18 20 21 20 21 22 22 23 23 23 25 24 23 21 20 19 18 18 18 18 18 18 17 16
8 8 9 8 7 8 7 7 7 7 6 6 6 6 6 6 6 5 6 7 7 5 5 4 5 7 6 8 8 7 6 7 9 8 7 7 7 6 5 12 15 12 8 7 8 10 16 18 19 20 22 21 20 22 21 21 22 20 20 24 25 24 22 20 20 20 21 20 20 18 18 17 19 18
8 8 8 9 8 7 7 6 7 7 8 8 6 5 5 6 5 5 5 6 7 5 4 4 4 5 7 6 8 7 8 8 7 7 7 8 8 7 6 6 10 13 13 8 7 9 8 14 17 18 21 23 22 23 23 22 18 18 20 23 22 21 19 18 18 18 18 19 19 19 18 17 17 19
7 8 8 8 9 9 8 7 7 7 7 6 7 6 5 5 5 5 6 6 5 6 5 5 3 4 6 5 7 7 7 8 7 7 8 7 7 8 7 7 7 12 11 10 4 10 13 15 17 18 18 22 24 25 25 23 21 22 19 21 20 18 17 17 19 18 18 17 18 18 18 17 16 16
9 9 9 10 9 7 8 8 7 9 9 7 6 7 6 6 6 5 5 6 7 7 6 6 5 5 6 6 7 7 6 6 6 7 7 7 6 6 6 7 7 9 11 11 9 5 12 15 16 16 19 20 20 21 22 19 15 13 14 15 16 15 17 18 19 19 19 19 18 18 18 17 17 16
9 10 10 9 9 9 8 8 7 8 9 8 7 7 5 5 6 6 5 5 6 6 6 5 6 6 6 5 5 6 5 5 6 6 5 6 6 6 6 6 5 7 9 11 11 8 6 12 13 14 13 13 14 18 19 17 17 19 18 13 13 15 15 17 17 18 18 17 17 17 18 17 17 17
10 9 9 10 10 10 10 9 9 9 10 9 8 8 7 6 6 5 5 5 5 5 5 5 5 6 6 5 5 7 8 5 5 6 6 6 6 6 6 6 6 8 10 10 12 11 5 7 11 11 13 12 10 11 13 16 17 17 15 16 18 18 15 14 15 17 17 17 17 16 17 17 17 17
9 9 9 10 10 10 10 9 9 9 10 9 9 9 9 8 6 6 5 5 5 5 5 5 5 5 6 6 5 6 8 7 5 5 5 5 6 6 6 6 6 6 8 9 9 11 8 5 4 6 8 10 11 9 10 13 15 16 16 17 19 20 17 15 15 16 17 17 16 16 16 17 17 17
9 8 9 10 9 10 10 10 10 10 10 9 10 9 8 8 9 7 6 6 6 6 5 5 4 5 5 6 7 7 7 5 5 7 6 5 5 5 5 6 6 6 6 6 6 8 8 8 5 2 3 8 11 12 13 11 11 13 15 15 16 18 18 18 16 16 17 17 16 16 16 16 17 17
9 8 8 9 10 10 10 10 10 10 9 9 8 9 8 8 8 7 7 7 6 6 6 5 5 5 5 5 5 6 7 7 6 6 6 6 6 6 5 4 6 8 7 6 6 7 6 5 4 1 3 5 7 9 11 12 10 13 14 17 17 16 17 17 15 16 17 17 17 15 15 15 16 17
8 8 7 9 9 9 9 11 12 12 11 9 9 9 9 9 8 7 7 6 6 5 5 4 4 4 3 4 5 5 6 5 6 6 6 5 5 5 5 4 5 7 8 6 7 7 7 6 6 4 6 5 4 7 10 11 14 13 10 12 15 15 16 16 15 14 15 16 16 16 15 14 15 16
8 7 8 6 8 11 10 10 11 12 13 13 10 9 9 10 8 8 7 6 6 6 5 5 5 4 5 5 5 5 5 6 6 7 7 6 6 5 5 3 6 8 7 6 6 6 6 6 5 6 7 7 6 3 6 8 11 12 14 12 11 13 15 16 16 16 15 15 15 16 15 15 15 15
8 7 7 7 8 10 12 8 9 10 11 12 12 12 11 11 10 8 8 7 6 6 6 5 4 5 4 5 5 6 7 7 7 6 6 5 6 5 5 5 4 7 8 7 6 5 6 6 6 6 6 6 5 6 6 5 4 9 12 14 15 17 16 15 15 16 16 16 17 17 17 17 17 16
7 8 8 8 7 8 9 11 8 9 10 11 11 11 10 9 11 11 9 8 6 6 6 5 6 6 6 6 7 8 7 7 7 7 6 6 6 5 4 4 5 6 7 6 5 4 4 5 3 5 5 4 6 5 6 7 2 7 12 14 14 15 16 16 16 17 17 18 19 19 19 19 18 18
7 7 7 8 8 7 11 10 11 9 8 10 11 11 10 7 8 9 10 9 7 6 6 6 6 8 7 7 7 7 8 8 8 7 6 5 5 5 4 4 5 5 6 5 4 4 4 5 4 4 5 5 6 5 7 8 7 3 3 8 11 12 13 14 15 17 18 18 18 19 19 20 19 18
7 7 7 7 7 7 8 10 11 10 9 9 8 9 7 7 5 7 10 11 11 9 6 6 7 6 7 6 7 8 9 8 8 7 7 6 6 6 4 4 4 2 4 5 5 3 4 5 4 4 4 5 6 6 8 11 9 6 5 2 5 9 11 13 15 16 16 16 16 17 18 19 19 18
7 7 7 8 7 7 8 9 11 10 10 8 8 8 7 6 6 5 7 9 9 8 8 8 7 7 8 8 8 8 7 8 7 7 7 6 5 5 6 5 3 0 3 6 5 3 3 3 4 4 3 4 4 6 8 11 10 10 9 7 4 3 8 10 12 14 16 18 17 16 16 16 17 17
6 7 9 8 7 8 8 11 13 13 13 9 10 9 8 5 6 5 5 5 6 7 7 7 7 6 6 6 7 7 8 8 7 7 6 3 3 4 2 1 1 1 4 4 5 3 2 3 3 3 3 3 3 5 6 9 11 11 11 10 6 4 2 9 11 12 14 16 18 18 18 18 18 18
6 7 7 7 8 9 9 10 10 13 17 8 9 9 7 6 5 5 2 7 6 3 3 3 2 3 4 5 4 6 9 8 9 6 5 5 5 3 2 1 1 2 3 4 4 5 2 3 3 3 3 3 3 4 5 6 8 10 12 10 10 9 6 1 8 10 11 12 13 15 16 17 16 16
5 7 8 9 8 9 8 7 9 12 13 9 9 9 7 6 6 6 6 6 4 1 8 10 7 4 3 6 8 3 5 8 8 6 6 6 5 2 2 2 2 1 2 4 6 6 0 1 2 2 1 1 3 4 4 5 6 8 10 11 11 11 9 6 3 5 7 8 9 10 13 15 15 11
5 5 6 10 8 8 7 7 7 10 12 10 9 8 7 7 7 6 7 6 7 6 7 5 4 2 2 4 4 3 2 6 7 6 6 5 4 4 3 2 1 1 4 7 9 6 1 2 2 2 1 1 3 4 3 4 6 6 6 5 6 6 9 9 7 4 2 5 7 8 9 10 10 6
5 6 5 7 9 7 7 6 7 8 11 10 8 8 7 8 7 8 8 7 7 6 5 4 2 2 1 3 3 4 6 5 6 5 6 7 6 5 4 3 3 4 5 7 9 7 3 2 2 2 2 0 1 2 2 5 6 6 6 5 6 4 5 8 9 10 8 6 3 3 5 5 8 3
6 6 6 7 7 7 6 5 6 7 8 10 8 8 8 8 8 12 6 5 6 4 4 3 3 2 1 1 3 3 4 5 6 5 6 7 7 6 5 5 4 5 5 7 9 6 5 4 3 3 2 1 1 2 3 4 5 6 5 6 6 6 6 7 6 7 9 9 7 6 5 6 12 7
5 4 5 6 6 5 4 4 5 7 8 8 8 7 8 10 11 10 5 5 5 4 4 4 4 4 4 4 4 5 5 5 6 5 5 6 7 6 6 6 6 5 5 6 8 7 6 3 4 4 2 1 3 2 2 4 5 5 6 6 6 6 6 6 7 8 6 6 6 5 4 3 6 4
4 3 4 5 6 5 3 4 4 5 10 6 7 9 12 11 14 9 6 6 5 5 4 4 4 4 5 5 5 5 6 5 6 6 5 5 5 6 6 6 5 6 5 6 6 7 6 5 3 3 4 3 2 2 2 2 4 4 5 5 6 6 6 5 6 6 6 5 4 5 7 6 8 8
2 3 4 4 5 4 4 5 5 3 5 5 6 11 11 14 5 7 6 6 5 5 5 4 4 4 4 5 5 5 5 6 5 5 3 3 3 4 4 5 6 5 5 6 6 6 6 6 5 4 3 3 2 1 2 2 2 3 4 5 6 6 5 6 6 6 6 6 6 6 6 6 3 3
2 4 4 3 5 7 8 6 7 7 5 5 7 9 14 8 7 7 7 6 6 5 5 5 5 5 4 5 5 5 5 4 3 3 4 3 3 4 4 2 4 4 4 4 6 6 7 6 6 6 4 3 2 2 0 1 2 2 2 3 5 5 5 6 6 6 6 6 6 7 7 5 5 6
1 2 4 4 8 10 10 3 1 4 3 6 11 14 7 6 6 7 7 7 6 6 6 6 6 5 5 5 5 4 4 4 4 4 3 4 2 2 3 4 2 2 4 5 5 7 7 7 7 8 5 4 3 3 2 1 3 3 2 3 4 4 5 5 5 5 5 6 6 7 7 7 7 6
5 7 6 1 2 7 8 7 6 3 5 3 3 5 5 5 6 6 6 6 6 6 6 6 6 5 5 4 3 3 4 4 4 4 3 3 3 3 3 3 2 2 3 4 5 7 7 7 7 8 7 6 4 3 3 3 3 3 3 4 2 4 3 4 4 5 5 5 6 6 6 6 6 7
1 2 3 5 5 5 5 7 7 3 3 2 3 4 5 5 5 4 4 3 5 5 5 5 5 5 4 5 5 4 4 5 5 5 4 4 4 3 2 2 1 2 2 2 2 5 5 6 6 6 6 6 5 5 2 3 4 3 3 3 4 3 2 3 3 4 4 4 5 6 6 6 7 7
3 2 3 3 3 3 3 4 5 4 4 4 3 2 4 4 5 5 5 6 5 5 5 5 5 5 5 5 5 5 4 4 3 5 4 3 4 3 3 3 4 4 4 2 2 3 5 5 4 5 5 6 6 6 4 2 3 3 3 3 2 3 4 4 3 3 2 3 5 6 6 6 7 7
4 3 3 3 3 2 4 4 5 5 5 5 5 4 2 2 4 5 4 6 5 5 5 5 5 5 5 5 6 5 5 4 3 3 3 3 3 3 2 2 2 2 2 4 4 4 5 4 4 1 1 4 6 7 7 5 2 3 2 2 2 4 3 3 3 3 2 2 3 4 5 6 6 7
4 3 4 3 3 4 4 4 4 4 5 4 4 4 4 3 3 4 4 6 6 4 5 5 5 5 5 5 5 6 5 5 4 4 3 3 3 3 3 3 3 3 3 3 3 3 4 3 4 4 4 3 3 6 11 9 5 3 1 2 2 3 2 2 2 3 2 1 3 3 4 6 6 5
4 3 3 3 2 2 3 3 3 3 4 5 4 4 4 4 3 4 4 5 6 4 5 5 4 5 5 5 5 5 5 5 4 4 4 4 4 4 3 3 3 3 3 3 2 3 3 4 4 3 3 4 4 2 4 8 10 6 4 1 2 2 2 2 1 2 3 4 2 1 3 6 5 4
4 3 3 3 2 2 3 3 3 3 3 3 5 4 4 4 4 3 5 3 4 5 4 5 4 5 4 5 5 4 4 4 5 4 4 4 4 4 4 3 3 3 3 3 3 2 2 2 3 3 4 3 3 2 4 3 8 10 7 3 1 2 2 2 1 3 2 2 5 4 5 5 5 5
4 3 3 3 2 2 2 3 2 2 2 3 3 3 4 4 3 2 3 4 3 5 4 3 5 4 5 4 5 4 4 5 4 4 5 5 5 5 5 5 4 4 3 2 2 2 2 2 2 2 5 3 3 3 3 4 3 7 11 7 4 1 1 2 3 4 3 4 4 5 5 6 6 4
5 3 2 3 2 1 2 1 2 2 2 2 2 3 3 4 3 2 2 3 3 4 5 3 4 5 5 4 4 4 4 4 5 4 5 5 5 5 5 5 4 4 4 3 2 1 1 1 0 1 4 1 4 4 3 3 4 3 6 8 5 4 1 4 1 3 3 4 5 6 8 8 9 9
4 3 3 3 3 2 2 2 2 2 2 2 2 2 3 3 4 3 2 2 3 3 4 3 2 4 4 3 4 4 3 3 4 4 4 4 5 5 6 5 4 4 4 3 3 2 2 2 1 2 4 5 5 4 2 2 2 2 4 7 10 6 5 6 6 4 1 4 3 4 6 7 6 6
3 3 3 3 3 3 3 2 3 2 3 2 2 0 2 3 4 2 2 2 3 4 4 4 2 3 3 3 3 4 4 4 3 4 4 3 3 4 6 7 4 4 5 4 4 3 4 4 3 3 6 5 4 4 4 4 4 4 4 4 6 7 7 7 4 6 4 3 6 2 2 1 2 5
3 3 3 4 3 3 3 3 3 4 4 3 3 3 3 4 2 1 3 4 2 2 5 4 4 2 3 2 3 3 3 3 4 3 3 4 4 3 3 5 5 4 5 4 4 4 3 2 1 2 4 4 4 3 4 5 5 4 4 3 4 5 7 9 13 11 7 5 6 7 3 2 2 1
4 4 4 4 4 4 4 4 4 4 4 4 4 4 4 3 1 3 2 2 3 3 3 3 4 3 2 3 2 3 3 3 3 3 3 4 4 4 4 4 4 4 4 4 2 2 1 3 0 3 3 4 3 4 2 5 4 3 3 4 4 4 4 5 9 12 14 13 10 6 4 5 6 1
4 5 5 4 4 4 4 4 3 3 3 4 4 4 5 4 3 1 2 3 2 3 3 4 3 4 2 2 2 2 2 4 4 3 3 3 2 3 4 4 4 4 4 4 3 2 2 1 2 2 2 2 2 2 1 3 4 3 3 3 1 3 5 5 4 7 10 14 12 8 8 7 5 4
5 5 5 5 5 4 5 4 3 3 3 3 3 4 4 4 3 4 3 2 2 3 4 4 4 3 3 2 2 4 2 2 3 1 4 1 2 2 2 4 4 2 3 4 3 2 2 1 2 2 1 1 1 2 2 1 1 2 1 2 3 3 3 3 5 4 4 5 9 10 8 7 8 10
Wind_Direction
1 359 356 352 343 359 337 342 341 341 333 332 326 331 333 340 330 340 330 357 342 43 33 6 35 14 11 21 22 28 23 14 15 35 45 38 16 349 266 264 268 267 243 221 225 225 225 227 217 211 208 206 205 207 208 208 206 206 205 202 203 199 198 196 205 198 201 200 199 204 205 201 195 199
5 360 353 0 345 358 329 351 329 336 332 323 322 315 317 322 324 336 330 319 346 2 22 13 19 16 6 20 32 27 28 13 13 26 42 44 46 60 46 22 347 316 273 254 239 227 220 232 232 225 216 210 209 210 211 209 209 207 211 203 203 200 198 195 197 196 199 199 200 201 202 196 192 196
6 359 357 360 357 351 340 345 341 339 331 333 317 310 312 312 316 319 313 309 340 9 1 9 30 8 18 11 38 23 31 27 20 28 32 44 36 23 49 47 35 354 295 270 235 233 223 216 217 232 231 226 220 220 223 219 212 208 206 208 204 201 199 198 194 192 198 203 203 200 199 195 194 200
3 2 1 1 1 3 349 352 344 344 344 333 317 318 316 304 304 309 304 312 324 353 348 355 14 19 4 31 18 22 31 32 29 30 27 35 48 35 33 30 23 15 357 267 264 259 246 230 220 215 218 219 222 219 216 222 221 213 211 215 205 203 202 198 195 190 192 199 203 204 200 196 193 199
1 6 3 6 5 357 356 357 346 356 352 341 327 316 308 299 302 306 305 303 313 321 353 338 7 18 9 32 18 21 25 21 22 27 33 33 29 32 27 28 20 5 6 359 240 240 245 234 235 229 221 220 224 220 215 215 216 221 216 223 213 204 202 198 194 192 193 196 199 202 202 202 198 197
12 12 9 11 12 2 352 1 353 353 355 354 342 336 324 307 308 322 314 310 304 307 330 336 2 5 6 17 24 18 18 21 13 19 33 37 33 30 24 16 14 2 0 11 330 221 212 216 220 222 226 221 220 216 213 212 208 206 215 223 229 203 196 204 190 190 194 196 198 201 202 202 202 198
18 17 12 17 15 2 357 360 357 357 355 355 349 348 335 330 322 321 322 314 314 319 317 323 332 3 351 1 17 11 16 19 18 11 25 31 35 33 23 16 15 3 359 4 11 283 221 214 219 220 216 217 207 210 214 211 199 200 210 221 226 225 195 194 190 191 194 198 199 199 200 200 201 200
18 21 17 13 14 6 2 5 358 3 357 358 356 356 356 336 349 340 322 330 322 329 318 337 343 346 347 355 6 7 3 13 19 18 14 30 26 32 27 17 5 354 357 11 11 1 257 220 217 218 218 212 209 208 203 198 206 203 199 207 212 235 218 189 189 191 195 198 200 199 198 199 200 201
14 20 24 10 14 9 3 9 11 358 357 3 356 357 359 355 5 2 355 347 341 342 342 341 357 352 347 353 1 10 355 0 13 26 12 17 7 13 29 22 11 4 4 18 13 13 359 229 213 216 215 219 217 207 195 192 202 214 208 194 192 204 217 199 187 189 196 200 202 201 200 199 198 199
17 12 19 22 17 14 11 4 10 359 350 357 8 9 354 355 357 359 4 355 343 339 339 328 330 349 346 331 350 7 360 352 355 11 9 24 12 356 6 19 18 18 14 16 13 20 27 41 183 211 215 215 212 201 201 198 203 209 209 196 185 190 197 205 197 194 196 202 204 203 200 198 198 198
19 13 17 19 17 16 14 8 4 357 353 355 360 13 1 4 354 0 2 349 347 334 335 327 340 332 339 330 344 1 346 352 356 356 346 360 17 360 355 11 14 19 18 53 30 11 32 39 35 28 218 205 203 195 200 203 209 209 205 202 194 187 186 193 202 198 198 200 204 203 203 201 199 198
21 16 25 23 18 16 17 7 4 2 359 350 351 9 2 359 357 359 357 0 356 344 335 331 330 329 337 354 351 350 345 346 351 356 345 343 360 352 342 12 16 8 14 15 29 10 12 31 31 112 170 205 223 210 195 195 195 206 207 201 194 187 183 193 194 197 198 200 200 200 202 204 203 200
8 13 21 34 16 15 9 27 12 11 6 355 357 357 357 357 0 348 355 354 1 345 346 335 327 299 340 345 353 353 350 353 347 333 335 338 351 344 338 11 35 17 6 9 27 17 0 13 22 15 27 37 204 215 206 203 200 200 199 196 190 183 182 189 194 197 200 201 203 202 202 203 203 203
2 11 9 34 53 18 357 34 20 15 12 10 6 2 358 356 0 350 349 352 355 346 350 355 351 355 6 2 4 341 344 344 332 340 339 332 345 348 337 350 44 24 5 9 12 22 15 14 34 27 36 27 26 72 180 204 206 198 193 188 183 188 187 190 193 197 201 203 205 204 203 205 205 203
3 6 9 6 29 28 3 10 35 14 13 9 6 4 6 7 0 358 357 353 344 345 350 356 8 11 23 23 10 2 359 0 340 337 327 336 337 349 346 350 359 34 360 358 353 25 9 8 27 41 41 40 31 26 15 15 178 185 191 193 191 189 191 192 196 200 201 203 203 202 200 201 203 201
8 6 6 10 7 32 15 351 3 13 8 10 3 360 356 8 13 10 6 4 6 356 341 3 12 14 26 10 22 11 6 359 344 346 329 351 333 333 336 350 343 5 356 346 348 29 20 9 22 44 44 44 53 39 26 31 64 193 193 199 202 197 191 190 194 200 204 203 203 201 198 199 199 198
14 10 3 10 10 20 24 8 357 356 359 8 359 356 348 359 20 11 11 9 6 5 7 24 29 25 8 12 17 7 355 352 347 343 337 349 324 330 323 346 326 352 347 332 346 3 30 4 23 53 50 49 53 39 27 38 49 75 202 203 193 191 191 191 197 204 208 207 204 202 199 197 198 197
15 12 357 11 11 12 18 14 358 351 354 1 354 356 352 352 5 19 14 8 10 11 19 30 28 26 24 20 11 9 356 355 350 337 337 338 324 316 320 319 294 338 357 350 331 320 33 4 4 43 69 70 70 59 42 42 40 45 67 89 199 184 188 198 204 207 209 212 209 205 204 201 198 196
13 13 6 6 4 5 8 21 357 346 346 356 355 350 343 2 324 36 8 16 7 11 6 12 12 10 18 7 9 5 353 350 342 332 327 324 318 293 275 236 260 126 36 359 326 17 25 14 356 46 40 73 68 86 62 51 50 51 50 55 32 220 203 206 211 211 210 208 207 207 207 208 203 197
14 24 14 356 5 10 24 25 353 341 329 348 354 350 340 357 351 358 94 41 39 20 8 12 10 6 17 6 8 0 350 345 341 324 316 321 304 291 264 240 233 19 40 15 340 337 19 3 346 26 38 90 122 73 85 75 58 54 52 55 67 65 236 215 209 208 210 210 206 204 204 204 204 198
13 42 15 360 8 11 22 23 347 342 334 355 2 346 348 349 3 356 60 136 113 40 310 289 282 317 346 338 347 351 342 340 327 337 349 15 350 334 356 67 232 63 25 15 346 326 330 3 349 8 34 14 51 73 69 85 88 74 63 52 53 62 60 281 224 209 204 206 208 206 204 206 206 201
35 73 51 20 15 9 20 20 354 350 348 354 6 346 354 355 2 8 6 353 341 179 222 219 217 207 252 269 214 132 332 322 333 360 1 359 350 1 348 24 338 64 63 41 353 309 157 337 43 6 346 67 15 51 57 69 127 131 100 82 63 58 61 49 359 237 211 202 201 202 206 206 198 198
22 38 69 59 29 13 16 5 0 358 354 355 16 353 2 3 1 7 348 11 337 348 345 1 339 316 313 344 5 21 350 1 6 7 1 348 6 3 23 4 312 140 67 42 357 329 103 356 44 7 330 79 41 43 49 64 59 55 54 74 82 90 85 78 67 54 94 173 180 180 186 202 196 199
27 23 14 65 51 16 17 1 357 353 347 354 21 6 16 2 7 343 350 2 340 341 357 336 341 325 35 1 330 22 12 2 31 11 9 5 1 3 360 28 26 36 30 33 2 338 332 344 9 42 39 248 68 50 79 65 58 55 56 60 51 95 131 106 82 72 65 63 97 185 210 192 178 200
22 13 12 28 43 25 14 3 340 346 336 352 15 21 13 1 332 307 340 351 337 353 350 349 7 341 5 12 7 20 40 4 18 10 25 9 4 4 11 15 30 54 49 35 350 355 340 343 357 351 338 245 152 139 78 72 74 69 59 55 54 34 35 37 62 71 70 68 70 84 110 161 191 201
23 6 4 30 35 23 15 335 340 337 331 333 21 359 329 301 300 313 3 353 359 11 5 21 17 358 359 16 17 8 5 24 10 4 18 13 5 14 9 19 11 28 36 32 350 351 344 337 16 336 326 314 143 157 125 98 77 74 72 63 55 51 42 38 34 49 65 67 56 69 115 172 194 146
13 16 359 44 44 27 351 312 317 359 331 9 10 327 303 307 292 313 19 359 5 9 27 21 30 12 358 15 13 12 353 8 5 349 15 359 5 10 10 6 11 12 9 345 357 354 347 357 326 343 341 349 300 140 97 80 81 78 73 67 68 61 54 52 44 35 28 54 93 78 79 96 93 72
17 358 17 40 33 331 311 264 239 350 7 356 332 301 301 286 333 12 1 14 3 0 8 22 13 21 16 4 11 8 358 355 354 349 357 358 358 12 10 11 12 12 356 352 1 2 357 346 340 7 319 314 335 53 111 120 100 54 81 75 61 61 56 55 55 49 49 45 44 47 40 39 50 110
23 51 18 326 266 276 259 226 236 198 190 227 271 284 284 347 29 10 13 8 4 2 4 12 7 12 15 9 13 3 348 346 337 356 349 356 6 350 333 349 26 17 10 6 3 11 5 2 357 346 344 342 350 56 199 135 81 85 41 77 69 55 63 62 57 54 56 55 55 53 53 61 44 22
20 186 226 236 254 241 254 263 85 17 329 270 266 262 305 29 17 18 7 8 6 2 1 5 3 8 1 9 4 349 348 9 14 3 356 333 28 1 5 347 9 46 33 15 17 9 10 8 5 358 1 9 36 48 61 113 129 120 101 72 91 95 57 66 64 63 59 61 60 61 66 70 68 63
214 195 211 267 346 315 304 281 230 229 355 304 325 6 1 2 18 18 15 2 6 1 355 2 1 8 358 353 350 11 13 25 26 2 354 333 11 347 10 328 325 39 36 12 33 21 11 8 4 8 15 13 19 47 40 74 95 91 91 106 75 64 62 69 69 66 62 65 69 68 65 68 68 62
344 295 249 210 227 237 251 225 226 321 346 352 345 6 359 2 350 31 5 25 14 3 351 3 348 1 351 2 2 358 34 9 31 9 18 350 350 347 322 272 8 350 30 11 23 37 11 19 3 7 17 20 20 19 41 97 95 83 81 84 93 92 69 71 74 76 65 73 73 64 51 54 58 59
282 265 267 273 291 302 328 327 331 345 351 354 356 57 37 339 351 345 21 5 13 1 349 357 354 1 358 8 356 1 22 22 24 25 7 17 350 355 343 354 3 357 331 15 14 10 3 2 8 5 16 19 18 3 6 103 92 88 80 74 81 80 69 67 65 55 43 79 79 76 63 57 53 52
285 278 299 309 313 318 323 335 333 355 344 3 346 351 153 318 6 335 5 10 355 354 351 347 359 359 355 8 359 4 4 14 10 49 346 15 350 340 347 12 42 11 335 332 5 352 344 343 325 257 245 83 43 38 13 10 42 70 70 80 47 77 43 74 71 56 31 51 76 83 87 83 77 63
244 259 274 311 332 338 328 331 351 340 337 356 347 337 336 353 1 344 345 7 339 4 348 347 355 354 357 357 3 357 9 355 2 12 16 13 350 351 358 5 27 359 352 348 2 0 327 329 306 227 192 181 139 81 41 20 359 32 345 86 8 80 52 38 93 86 59 53 74 98 102 85 64 70
270 272 285 298 332 352 321 335 334 340 336 340 344 349 341 335 347 325 23 16 331 337 9 335 355 354 354 355 357 356 8 347 7 4 19 13 11 3 355 26 356 353 337 354 7 356 343 333 318 287 198 192 206 172 87 42 39 358 354 161 78 61 63 28 33 108 104 106 147 47 57 72 69 40
260 275 277 287 313 330 317 315 324 345 342 337 334 355 340 329 342 351 39 319 303 319 38 318 347 348 343 359 343 1 357 1 4 3 2 10 6 6 359 14 20 359 338 3 356 346 332 323 314 292 314 247 197 188 86 124 62 43 7 344 153 124 69 82 67 79 44 58 56 69 74 75 68 47
262 259 244 282 290 278 295 308 314 308 327 348 340 334 338 334 340 343 319 274 319 325 336 340 356 345 349 353 345 354 360 0 353 6 359 9 5 12 5 0 357 17 345 355 359 3 332 310 320 323 297 298 135 158 134 103 102 67 39 355 328 56 114 217 150 92 50 25 59 51 85 92 88 74
254 269 249 264 303 288 275 273 297 295 296 311 340 336 330 322 332 309 298 312 335 330 322 356 1 350 324 343 344 336 3 2 348 4 3 19 13 10 1 360 357 20 337 7 12 43 356 309 11 293 308 2 57 65 39 80 66 59 58 29 354 307 114 322 317 141 154 129 108 102 93 87 87 115
246 249 259 246 235 215 248 287 274 251 272 256 264 320 326 332 342 319 301 303 307 316 311 321 28 326 312 347 344 335 360 359 352 6 2 16 24 8 8 344 2 0 332 17 6 30 9 26 29 354 338 332 341 337 328 79 98 99 79 57 20 9 4 338 340 346 83 14 334 157 132 143 163 184
240 255 240 232 240 237 238 240 268 273 260 273 304 146 293 4 310 359 323 319 296 298 306 308 341 333 332 338 326 333 347 357 357 10 1 1 40 22 350 319 16 7 342 26 9 6 27 20 12 288 271 279 270 232 206 183 154 119 71 66 58 42 31 13 1 346 356 10 312 282 188 132 167 171
234 237 241 226 240 251 246 258 252 263 278 273 278 243 172 198 218 70 288 164 220 266 286 296 306 340 317 319 322 325 332 358 356 352 12 358 358 9 20 2 7 10 359 4 13 12 41 34 253 243 233 234 231 218 208 163 138 123 115 117 112 91 57 54 59 52 38 0 353 352 344 177 251 174
224 237 237 235 235 237 248 258 262 263 271 276 274 290 299 290 247 198 259 168 212 261 286 290 295 297 349 307 336 327 316 351 11 353 360 19 357 359 7 25 6 357 10 344 5 17 45 108 153 220 194 231 195 265 216 91 107 133 180 154 132 117 112 112 95 92 77 56 33 24 355 354 337 69
235 236 237 234 236 230 238 259 263 252 264 266 254 227 244 270 270 255 260 279 260 270 277 288 282 290 281 317 301 289 308 7 347 4 342 41 350 9 348 12 351 13 10 357 345 49 25 78 93 274 204 215 217 251 120 156 184 171 166 121 152 181 161 146 145 138 108 76 53 38 22 24 51 45
241 240 245 239 237 244 240 244 238 248 247 252 249 231 241 247 250 272 269 227 247 256 253 259 269 277 286 243 257 271 49 72 277 24 283 32 317 21 28 23 341 19 21 16 346 24 19 314 130 207 213 188 199 275 227 197 58 156 162 229 199 209 194 189 185 182 104 85 42 34 43 49 62 72